Time,TemperatureF,DewpointF,PressureIn,WindDirection,WindDirectionDegrees,WindSpeedMPH,WindSpeedGustMPH,Humidity,HourlyPrecipIn,Conditions,Clouds,dailyrainin,SoftwareType,DateUTC
2013-01-17 00:05:00,32.3,29.0,30.15,South,184,0.0,1.0,86,0.00,,,0.00,weatherlink.com 1.10,2013-01-17 06:05:00,
2013-01-17 00:20:00,32.2,29.0,30.17,South,184,1.0,2.0,87,0.00,,,0.00,weatherlink.com 1.10,2013-01-17 06:20:00,
2013-01-17 00:35:00,32.3,29.0,30.17,South,187,2.0,3.0,87,0.00,,,0.00,weatherlink.com 1.10,2013-01-17 06:35:00,
2013-01-17 00:50:00,33.1,29.0,30.18,West,270,2.0,4.0,84,0.00,,,0.00,weatherlink.com 1.10,2013-01-17 06:50:00,
2013-01-17 01:05:00,33.3,29.0,30.18,West,261,4.0,5.0,83,0.00,,,0.00,weatherlink.com 1.10,2013-01-17 07:05:00,
2013-01-17 01:20:00,33.5,29.0,30.19,WNW,292,3.0,6.0,83,0.00,,,0.00,weatherlink.com 1.10,2013-01-17 07:20:00,
2013-01-17 01:35:00,33.7,29.0,30.19,NNW,343,2.0,7.0,83,0.00,,,0.00,weatherlink.com 1.10,2013-01-17 07:35:00,
2013-01-17 01:50:00,33.7,29.0,30.20,NW,320,3.0,7.0,83,0.00,,,0.00,weatherlink.com 1.10,2013-01-17 07:50:00,
2013-01-17 02:05:00,33.1,29.0,30.20,NW,325,5.0,6.0,83,0.00,,,0.00,weatherlink.com 1.10,2013-01-17 08:05:00,
2013-01-17 02:20:00,32.5,28.0,30.21,NW,315,3.0,6.0,84,0.00,,,0.00,weatherlink.com 1.10,2013-01-17 08:20:00,
2013-01-17 02:35:00,32.4,28.0,30.22,NNW,340,2.0,4.0,85,0.00,,,0.00,weatherlink.com 1.10,2013-01-17 08:35:00,
2013-01-17 02:50:00,32.3,29.0,30.22,WNW,303,6.0,8.0,86,0.00,,,0.00,weatherlink.com 1.10,2013-01-17 08:50:00,
2013-01-17 03:05:00,32.2,29.0,30.22,NNW,337,2.0,6.0,87,0.00,,,0.00,weatherlink.com 1.10,2013-01-17 09:05:00,
2013-01-17 03:20:00,32.1,29.0,30.22,NNW,348,3.0,5.0,87,0.00,,,0.00,weatherlink.com 1.10,2013-01-17 09:20:00,
2013-01-17 03:35:00,31.9,29.0,30.22,NNW,340,5.0,6.0,87,0.00,,,0.00,weatherlink.com 1.10,2013-01-17 09:35:00,
2013-01-17 03:50:00,32.1,29.0,30.23,NNW,332,3.0,6.0,88,0.00,,,0.00,weatherlink.com 1.10,2013-01-17 09:50:00,
2013-01-17 04:05:00,32.2,29.0,30.24,NNW,331,3.0,5.0,88,0.00,,,0.00,weatherlink.com 1.10,2013-01-17 10:05:00,
2013-01-17 04:20:00,32.4,29.0,30.25,NNW,332,5.0,7.0,88,0.00,,,0.00,weatherlink.com 1.10,2013-01-17 10:20:00,
2013-01-17 04:35:00,32.5,29.0,30.25,NNW,341,4.0,6.0,88,0.00,,,0.00,weatherlink.com 1.10,2013-01-17 10:35:00,
2013-01-17 05:06:00,33.0,30.0,30.26,North,354,8.0,16.0,89,0.00,,,0.00,weatherlink.com 1.10,2013-01-17 11:06:00,
2013-01-17 05:21:00,32.8,28.0,30.27,North,349,11.0,17.0,83,0.00,,,0.00,weatherlink.com 1.10,2013-01-17 11:21:00,
2013-01-17 05:36:00,32.4,27.0,30.29,North,360,12.0,22.0,79,0.00,,,0.00,weatherlink.com 1.10,2013-01-17 11:36:00,
2013-01-17 05:53:00,31.5,25.0,30.29,NNW,344,11.0,14.0,77,0.00,,,0.00,weatherlink.com 1.10,2013-01-17 11:53:00,
2013-01-17 06:06:00,31.0,25.0,30.30,NNW,338,7.0,15.0,77,0.00,,,0.00,weatherlink.com 1.10,2013-01-17 12:06:00,
2013-01-17 06:21:00,30.6,24.0,30.30,North,356,8.0,16.0,77,0.00,,,0.00,weatherlink.com 1.10,2013-01-17 12:21:00,
2013-01-17 06:36:00,30.3,24.0,30.31,NNW,333,10.0,15.0,78,0.00,,,0.00,weatherlink.com 1.10,2013-01-17 12:36:00,
2013-01-17 06:51:00,29.9,24.0,30.31,North,359,9.0,14.0,79,0.00,,,0.00,weatherlink.com 1.10,2013-01-17 12:51:00,
2013-01-17 07:06:00,29.6,23.0,30.31,NW,326,8.0,15.0,77,0.00,,,0.00,weatherlink.com 1.10,2013-01-17 13:06:00,
2013-01-17 07:21:00,29.3,23.0,30.31,NNW,337,8.0,14.0,76,0.00,,,0.00,weatherlink.com 1.10,2013-01-17 13:21:00,
2013-01-17 07:36:00,29.2,23.0,30.32,NNW,336,10.0,16.0,77,0.00,,,0.00,weatherlink.com 1.10,2013-01-17 13:36:00,
2013-01-17 07:51:00,29.6,22.0,30.32,NNW,347,10.0,17.0,73,0.00,,,0.00,weatherlink.com 1.10,2013-01-17 13:51:00,
2013-01-17 08:06:00,30.1,22.0,30.34,NW,324,12.0,18.0,72,0.00,,,0.00,weatherlink.com 1.10,2013-01-17 14:06:00,
2013-01-17 08:21:00,30.4,23.0,30.34,North,355,17.0,21.0,73,0.00,,,0.00,weatherlink.com 1.10,2013-01-17 14:21:00,
2013-01-17 08:36:00,30.6,23.0,30.35,NNW,347,14.0,23.0,72,0.00,,,0.00,weatherlink.com 1.10,2013-01-17 14:36:00,
2013-01-17 08:51:00,30.7,22.0,30.36,NNW,345,12.0,26.0,70,0.00,,,0.00,weatherlink.com 1.10,2013-01-17 14:51:00,
2013-01-17 09:06:00,30.8,22.0,30.36,NW,320,16.0,25.0,69,0.00,,,0.00,weatherlink.com 1.10,2013-01-17 15:06:00,
2013-01-17 09:21:00,30.5,21.0,30.37,NNW,337,14.0,27.0,68,0.00,,,0.00,weatherlink.com 1.10,2013-01-17 15:21:00,
2013-01-17 09:36:00,30.8,20.0,30.38,North,354,11.0,23.0,65,0.00,,,0.00,weatherlink.com 1.10,2013-01-17 15:36:00,
2013-01-17 09:51:00,31.3,19.0,30.38,NNW,333,16.0,21.0,61,0.00,,,0.00,weatherlink.com 1.10,2013-01-17 15:51:00,
2013-01-17 10:06:00,31.4,18.0,30.38,NNW,339,12.0,23.0,57,0.00,,,0.00,weatherlink.com 1.10,2013-01-17 16:06:00,
2013-01-17 10:22:00,31.1,18.0,30.38,NNW,347,14.0,23.0,59,0.00,,,0.00,weatherlink.com 1.10,2013-01-17 16:22:00,
2013-01-17 10:37:00,31.4,18.0,30.37,North,351,11.0,22.0,59,0.00,,,0.00,weatherlink.com 1.10,2013-01-17 16:37:00,
2013-01-17 10:52:00,32.0,18.0,30.37,North,349,17.0,22.0,57,0.00,,,0.00,weatherlink.com 1.10,2013-01-17 16:52:00,
2013-01-17 11:07:00,31.4,18.0,30.37,North,10,10.0,20.0,58,0.00,,,0.00,weatherlink.com 1.10,2013-01-17 17:07:00,
2013-01-17 11:22:00,32.1,19.0,30.37,WNW,303,13.0,21.0,60,0.00,,,0.00,weatherlink.com 1.10,2013-01-17 17:22:00,
2013-01-17 11:37:00,31.7,19.0,30.37,NNW,334,10.0,21.0,59,0.00,,,0.00,weatherlink.com 1.10,2013-01-17 17:37:00,
2013-01-17 11:52:00,31.7,19.0,30.37,NNE,14,11.0,24.0,59,0.00,,,0.00,weatherlink.com 1.10,2013-01-17 17:52:00,
2013-01-17 12:07:00,31.6,18.0,30.36,NNW,347,16.0,22.0,57,0.00,,,0.00,weatherlink.com 1.10,2013-01-17 18:07:00,
2013-01-17 12:22:00,31.2,16.0,30.36,NW,325,20.0,22.0,54,0.00,,,0.00,weatherlink.com 1.10,2013-01-17 18:22:00,
2013-01-17 12:37:00,30.9,14.0,30.37,NNW,345,16.0,23.0,50,0.00,,,0.00,weatherlink.com 1.10,2013-01-17 18:37:00,
2013-01-17 12:52:00,30.8,14.0,30.36,North,349,11.0,24.0,51,0.00,,,0.00,weatherlink.com 1.10,2013-01-17 18:52:00,
2013-01-17 13:07:00,31.3,15.0,30.36,NNW,343,14.0,25.0,52,0.00,,,0.00,weatherlink.com 1.10,2013-01-17 19:07:00,
2013-01-17 13:22:00,31.8,15.0,30.37,NNE,18,16.0,22.0,51,0.00,,,0.00,weatherlink.com 1.10,2013-01-17 19:22:00,
2013-01-17 13:37:00,31.8,14.0,30.36,North,11,11.0,20.0,49,0.00,,,0.00,weatherlink.com 1.10,2013-01-17 19:37:00,
2013-01-17 13:52:00,31.7,14.0,30.36,North,5,13.0,22.0,49,0.00,,,0.00,weatherlink.com 1.10,2013-01-17 19:52:00,
2013-01-17 14:07:00,32.3,14.0,30.37,North,3,19.0,23.0,48,0.00,,,0.00,weatherlink.com 1.10,2013-01-17 20:07:00,
2013-01-17 14:22:00,32.0,14.0,30.37,North,11,14.0,21.0,47,0.00,,,0.00,weatherlink.com 1.10,2013-01-17 20:22:00,
2013-01-17 14:37:00,32.2,14.0,30.38,North,5,10.0,22.0,48,0.00,,,0.00,weatherlink.com 1.10,2013-01-17 20:37:00,
2013-01-17 14:52:00,30.9,14.0,30.38,North,3,11.0,22.0,49,0.00,,,0.00,weatherlink.com 1.10,2013-01-17 20:52:00,
2013-01-17 15:07:00,30.8,15.0,30.38,North,2,18.0,25.0,52,0.00,,,0.00,weatherlink.com 1.10,2013-01-17 21:07:00,
2013-01-17 15:22:00,30.2,15.0,30.38,North,357,14.0,20.0,53,0.00,,,0.00,weatherlink.com 1.10,2013-01-17 21:22:00,
2013-01-17 15:37:00,29.7,15.0,30.39,NNE,14,13.0,19.0,55,0.00,,,0.00,weatherlink.com 1.10,2013-01-17 21:37:00,
2013-01-17 15:52:00,29.1,15.0,30.40,North,358,16.0,24.0,55,0.00,,,0.00,weatherlink.com 1.10,2013-01-17 21:52:00,
2013-01-17 16:07:00,28.5,14.0,30.41,NNE,16,23.0,24.0,56,0.00,,,0.00,weatherlink.com 1.10,2013-01-17 22:07:00,
2013-01-17 16:22:00,27.8,14.0,30.41,North,6,8.0,22.0,57,0.00,,,0.00,weatherlink.com 1.10,2013-01-17 22:22:00,
2013-01-17 16:37:00,27.1,14.0,30.41,NNW,344,12.0,19.0,58,0.00,,,0.00,weatherlink.com 1.10,2013-01-17 22:37:00,
2013-01-17 16:52:00,26.6,13.0,30.42,NNW,345,10.0,18.0,58,0.00,,,0.00,weatherlink.com 1.10,2013-01-17 22:52:00,
2013-01-17 17:07:00,26.4,14.0,30.42,North,5,8.0,13.0,60,0.00,,,0.00,weatherlink.com 1.10,2013-01-17 23:07:00,
2013-01-17 17:22:00,26.6,14.0,30.43,NNW,347,6.0,9.0,60,0.00,,,0.00,weatherlink.com 1.10,2013-01-17 23:22:00,
2013-01-17 17:37:00,26.6,14.0,30.43,North,4,4.0,7.0,59,0.00,,,0.00,weatherlink.com 1.10,2013-01-17 23:37:00,
2013-01-17 17:52:00,26.0,14.0,30.44,North,357,6.0,7.0,61,0.00,,,0.00,weatherlink.com 1.10,2013-01-17 23:52:00,
2013-01-17 18:07:00,25.8,14.0,30.44,North,359,2.0,4.0,60,0.00,,,0.00,weatherlink.com 1.10,2013-01-18 00:07:00,
2013-01-17 18:22:00,24.9,13.0,30.45,NNW,348,1.0,3.0,61,0.00,,,0.00,weatherlink.com 1.10,2013-01-18 00:22:00,
2013-01-17 18:37:00,23.7,14.0,30.46,NNW,347,2.0,3.0,66,0.00,,,0.00,weatherlink.com 1.10,2013-01-18 00:37:00,
2013-01-17 18:52:00,23.2,14.0,30.46,NNW,337,2.0,3.0,67,0.00,,,0.00,weatherlink.com 1.10,2013-01-18 00:52:00,
2013-01-17 19:07:00,22.8,14.0,30.46,NNW,337,1.0,2.0,69,0.00,,,0.00,weatherlink.com 1.10,2013-01-18 01:07:00,
2013-01-17 19:22:00,22.5,14.0,30.47,NNW,337,2.0,3.0,70,0.00,,,0.00,weatherlink.com 1.10,2013-01-18 01:22:00,
2013-01-17 19:37:00,21.8,14.0,30.47,West,268,3.0,5.0,73,0.00,,,0.00,weatherlink.com 1.10,2013-01-18 01:37:00,
2013-01-17 19:52:00,21.3,14.0,30.47,West,264,1.0,3.0,73,0.00,,,0.00,weatherlink.com 1.10,2013-01-18 01:52:00,
2013-01-17 20:08:00,19.5,13.0,30.47,West,264,0.0,1.0,77,0.00,,,0.00,weatherlink.com 1.10,2013-01-18 02:08:00,
2013-01-17 20:23:00,18.9,14.0,30.47,West,264,0.0,2.0,82,0.00,,,0.00,weatherlink.com 1.10,2013-01-18 02:23:00,
2013-01-17 20:38:00,19.2,14.0,30.48,West,274,1.0,4.0,79,0.00,,,0.00,weatherlink.com 1.10,2013-01-18 02:38:00,
2013-01-17 20:53:00,21.7,14.0,30.49,West,274,5.0,6.0,72,0.00,,,0.00,weatherlink.com 1.10,2013-01-18 02:53:00,
2013-01-17 21:08:00,22.5,13.0,30.49,WNW,282,2.0,7.0,67,0.00,,,0.00,weatherlink.com 1.10,2013-01-18 03:08:00,
2013-01-17 21:23:00,22.6,13.0,30.50,West,267,1.0,8.0,67,0.00,,,0.00,weatherlink.com 1.10,2013-01-18 03:23:00,
2013-01-17 21:38:00,22.4,13.0,30.50,West,270,4.0,6.0,68,0.00,,,0.00,weatherlink.com 1.10,2013-01-18 03:38:00,
2013-01-17 21:53:00,22.2,13.0,30.49,WNW,282,4.0,6.0,68,0.00,,,0.00,weatherlink.com 1.10,2013-01-18 03:53:00,
2013-01-17 22:08:00,22.1,13.0,30.49,West,280,2.0,6.0,68,0.00,,,0.00,weatherlink.com 1.10,2013-01-18 04:08:00,
2013-01-17 22:23:00,21.9,13.0,30.49,WSW,248,1.0,4.0,69,0.00,,,0.00,weatherlink.com 1.10,2013-01-18 04:23:00,
2013-01-17 22:38:00,21.2,13.0,30.49,WSW,239,2.0,4.0,71,0.00,,,0.00,weatherlink.com 1.10,2013-01-18 04:38:00,
2013-01-17 22:53:00,21.2,13.0,30.49,WSW,240,2.0,3.0,71,0.00,,,0.00,weatherlink.com 1.10,2013-01-18 04:53:00,
2013-01-17 23:08:00,21.1,13.0,30.49,WSW,255,1.0,3.0,71,0.00,,,0.00,weatherlink.com 1.10,2013-01-18 05:08:00,
2013-01-17 23:23:00,19.7,13.0,30.48,WSW,255,0.0,2.0,74,0.00,,,0.00,weatherlink.com 1.10,2013-01-18 05:23:00,
2013-01-17 23:38:00,18.9,13.0,30.48,WSW,254,0.0,3.0,76,0.00,,,0.00,weatherlink.com 1.10,2013-01-18 05:38:00,
2013-01-17 23:53:00,17.5,13.0,30.48,WSW,255,0.0,1.0,81,0.00,,,0.00,weatherlink.com 1.10,2013-01-18 05:53:00,